Location: Cabeza de los Veneras
(40.2000°N, 5.2000°W)
Time: 15:11:49
(UTC+00:00)

Cosmos 2151 Rocket - Pass Details

Date: 18 April 2024
Orbit: 615 x 638 km, 82.5° (Epoch: 28 May)

Event Time Altitude Azimuth Distance (km) Brightness Sun altitude
Exits shadow 19:56:17 - 155° (SSE) 2,241 6.0 -10.4°
Reaches altitude 10° 19:57:01 10° 150° (SSE) 1,977 5.7 -10.5°
Maximum altitude 20:00:49 30° 90° (E) 1,126 4.4 -11.2°
Drops below altitude 10° 20:04:40 10° 30° (NNE) 2,002 6.1 -11.8°
Sets 20:07:07 0° 19° (NNE) 2,917 7.1 -12.2°
